Regional Weather Roundup
Issued by NWS Charleston, SC

Current Version | Previous Version | Graphics & Text | Print | Product List | Glossary On
Versions: 1 2 3 4 5 6 7 8 9 10 11 12 13 14 15 16 17 18 19 20 21 22 23 24 25 26 27 28 29 30 31 32 33 34 35 36 37 38 39 40 41 42 43 44 45 46 47 48 49 50
000
ASUS42 KCHS 072212
RWRCHS

REGIONAL WEATHER ROUNDUP
NATIONAL WEATHER SERVICE CHARLESTON SC
600 PM EDT TUE JUL 07 2015

NOTE: "FAIR" INDICATES FEW OR NO CLOUDS BELOW 12,000 FEET WITH NO
SIGNIFICANT WEATHER AND/OR OBSTRUCTIONS TO VISIBILITY.

NOT ALL STATIONS ARE QUALITY CONTROLLED BY THE NATIONAL
WEATHER SERVICE. USE DATA WITH CAUTION...ESPECIALLY
DEWPOINT OBSERVATIONS.

SCZ027-030-031-034>040-042>050-072300-
...SOUTHEAST SOUTH CAROLINA...

CITY           SKY/WX    TMP DP  RH WIND       PRES   REMARKS
N CHARLESTON   CLOUDY    81  73  76 S5        30.11F
WATERFRONT PAR   N/A     82  76  82 S7        30.09F
MOUNT PLEASANT LGT RAIN  82  73  74 S3        30.12S
JOHNS ISLAND   FAIR      84  75  74 S8        30.12S HX  92
PINOPOLIS      NOT AVBL
MONCKS CORNER  FAIR      81  73  78 SW3       30.11S
SUMMERVILLE    MOCLDY    77  77 100 CALM      30.11F
BEAUFORT MCAS  CLOUDY    79  74  84 S3        30.11F
BEAUFORT ARPT  FAIR      79  73  83 CALM      30.11F
HILTON HEAD IS MOSUNNY   79  73  83 S5        30.13F
WALTERBORO     CLOUDY    81  72  74 SE8       30.11F
ALLENDALE      MOCLDY    90  75  62 VRB7      30.08S HX 100

...SOUTHERN MIDLANDS AND PEE DEE...

CITY           SKY/WX    TMP DP  RH WIND       PRES   REMARKS
GEORGETOWN     NOT AVBL
KINGSTREE      NOT AVBL
ORANGEBURG     PTSUNNY   83  73  72 S8        30.09S
BARNWELL       FAIR      91  70  49 SW5       30.09S HX  97
AIKEN          NOT AVBL
MANNING        FAIR      81  70  69 S7        30.10S
COLUMBIA       MOSUNNY   93  64  38 W9        30.06F HX  94
SUMTER         MOSUNNY   89  72  57 S13       30.05F HX  96
FLORENCE       MOSUNNY   90  70  51 S12       30.07S HX  95
MYRTLE BEACH     N/A     82  73  74 S14G22    30.13R
N MYRTLE BEACH MOSUNNY   83  75  77 S15       30.11F HX  90

$$

GAZ063-065-086>088-099>101-113>116-118-119-134>141-150-072300-
...SOUTHEAST GEORGIA...

CITY           SKY/WX    TMP DP  RH WIND       PRES   REMARKS
SAVANNAH ARPT  CLOUDY    76  71  85 S6        30.12S
HUNTER AAF     CLOUDY    76  75  97 S6        30.10S
FORT STEWART   LGT RAIN  75  72  88 SE7       30.11R
STATESBORO     NOT AVBL
SYLVANIA       CLEAR     93  71  48 CALM      30.10F HX 100
CLAXTON        FAIR      91  72  52 W5        30.09F HX  98

...CSRA...CENTRAL AND FAR SOUTHEAST GEORGIA...

CITY           SKY/WX    TMP DP  RH WIND       PRES   REMARKS
THOMSON        SUNNY     92  75  58 SW5       30.14F HX 102
AUGUSTA-BUSH   MOSUNNY   93  68  43 VRB5      30.07F HX  97
AUGUSTA-DANIEL PTSUNNY   93  68  43 NW9       30.10S HX  97
SWAINSBORO     FAIR      95  68  41 W5        30.10F HX  99
VIDALIA        MOSUNNY   93  64  38 W5        30.10S HAZE    HX  95
EASTMAN        FAIR      92  68  46 SW3       30.12F HX  96
HAZLEHURST     FAIR      92  68  45 SW3       30.09F HX  96
ALMA           SUNNY     91  68  46 NW8       30.10F HX  95
WAYCROSS       PTSUNNY   94  74  51 NE7       30.09F HX 104
JESUP          CLOUDY    79  75  89 S5        30.11F
BAXLEY         FAIR      91  70  49 CALM      30.09F HX  97
BRUNSWICK      PTSUNNY   77  72  83 S7        30.13S
SAINT SIMONS   MOSUNNY   77  70  79 W8        30.12F

$$

SCZ027-028-034-036>038-045-046-048>050-GAZ119-141-072300-
...LAKE AND SUPPLEMENTAL COASTAL OBSERVATIONS...

STATION/POSITION TIME  TEMP    WIND        PRES    WAVE   SWELL
                       AIR SEA DIR/SP/G            HT/PER HT/PER/DIR
                 (UTC) (F)     (DEG/KT/KT) (MB)    (FT/S) (FT/S/D)
UPR LAKE MARION  NOT AVBL
WINYAH BAY       NOT AVBL
LAKE MURRAY      2100   89     210/  7/  9 1017.9S
ACE BASIN NERRS  NOT AVBL
FORT PULASKI     2100   79 84  210/  3/  4 1020.6F
SAPELO ISLAND    2100   88     170/ 12     1020.0S

$$

ANZ835-935-AMZ111-154-330-350-352-354-370-450-454-472-072300-
...C-MAN AND BUOY OBSERVATIONS...

STATION/POSITION TIME  TEMP    WIND        PRES    WAVE   SWELL
                       AIR SEA DIR/SP/G            HT/PER HT/PER/DIR
                 (UTC) (F)     (DEG/KT/KT) (MB)    (FT/S) (FT/S/D)
BUOY 41004       2150   83 83  200/ 12/ 14 1019.7S   3/ 8   2/ 8
BUOY 41008       2150   80 80  180/ 10/ 12 1020.4R   2/ 9   2/120/ 9
FOLLY BEACH CMAN 2100   81     210/  9/ 11 1020.3F
CAPERS NEARSHORE 2108   82     210/ 12/ 16 1020.5F
FRIPP NEARSHORE  2100   82     230/  6/  8 1020.0


STATION/POSITION TIME  TEMP    WIND        PRES    WAVE   SWELL
                       AIR SEA DIR/SP/G            HT/PER HT/PER/DIR
                 (UTC) (F)     (DEG/KT/KT) (MB)    (FT/S) (FT/S/D)
5E ST. MARYS GA  2121      79                N/A     2/ 9
FRYING PAN BUOY  2150   83 81  200/ 10/ 12 1020.4F   3/ 8   3/130/ 8
BUOY 41025       2150   82 83  220/ 17/ 19 1019.5S   3/ 9   2/110/ 9
CAPE LOOKOUT NC  2200   83     200/ 11/ 14 1019.5F
BUOY 41002       2150   83 81  210/ 10/ 12 1021.8F   4/ 8   3/140/ 8
BUOY 41010       2120   83 85  170/  8/ 10 1021.1F
ST AUGUSTINE FL  2200   77 77  170/  9/ 10 1021.3R


$$


USA.gov is the U.S. government's official web portal to all federal, state and local government web resources and services.